Showing default

YAOGAN-47, 66988

Orbit data source: Space-Track

YAOGAN-47, 66988 is a payload satellite owned by CASC (CN) in SSO that was launched on Tue, 09 Dec 2025 UTC via a CHANG ZHENG 4B launch vehicle from the Jiuquan Satellite Launch Center, China (JSC). Payload-class satellites include a variety of spacecraft equipped with specific instruments for various scientific and technological missions. These include communications satellites like Starlink; space stations such as the ISS; scientific satellites like the Hubble; Earth observation satellites from companies like Planet Labs, Umbra, and HawkEye 360; GPS; miniature CubeSats for education and research; and military/defense satellites.

Loading next visibility...
Identifier
66988, 2025-289A
Orbit
SSO
Country
Flag of CNCN / PRC
Related business
Manufacturer
Unknown (CN)
Mission
Operational Defense Imaging
Bus & Motor
YG47, Unknown motor
Mass
~1,500 kg wet, ~1,500 kg dry
Launch date (UTC)
2025-12-09 (6 months ago)
Launch vehicle
CHANG ZHENG 4B
Launch site
Jiuquan Satellite Launch Center, China (JSC)
Object type
Payload
Rocket body
Debris
Shape & HBR
Box + 2 Pan, 14.5 m
Radar Cross Section
13.377 m², Large (>1 m²)

Expand to show TLE details & history
Last TLE update: 12 hours ago

TLE from 12 hours ago
0 YAOGAN-47
1 66988U 25289A   26171.36267561  .00004233  00000-0  18147-3 0  9992
2 66988  97.5014 241.6763 0001001 140.4624 219.6686 15.23299599 29415
Epoch: 2026-06-20T08:42Z
TLE epoch observation values (Epoch: 2026-06-20T08:42:15.172Z)
Latitude
-0.00002°
Longitude
-157.4653°
Altitude
499.518 km
Speed
7.614 km/s
True Right ascension
16h 06m 42s
True Declination
0° 00' 00"
Sunlit
Object was in full shadow at epoch
Visualization orbit readout
Latitude
Unknown
Longitude
Unknown
Altitude
Unknown
Speed
Unknown
Apparent Right ascension
Unknown
Apparent Declination
Unknown
Sunlit
N/A
Visualization observer readout
Local Sidereal Time
07:14:51
Azimuth
Unknown
Elevation
Unknown
Doppler factor
Unknown
Orbital elements
Apogee altitude
493.549 km
Perigee altitude
492.174 km
Semi-major axis
6,870.999 km
Eccentricity
0.0001
Inclination
97.5014°
RAAN
241.6763°
Arg. of periapsis
140.4624°
True anomaly
219.66128°
Mean anomaly
219.6686°
Eccentric anomaly
219.66494°
Mean motion
3.81078 °/min
Orbital period
94.47 mins
BSTAR
0.00018147
Loading maneuver chart data...
Computing Atmospheric mass density...
Loading historical data...
Loading historical data...
Loading historical data...
Loading historical data...
Loading historical data...
Loading historical data...
Loading historical data...
Other satellites on launch #289 in the year 2025 (2025-12-09 UTC)

Documentation

Showing up to 5 results
|